| time (UTC) | temp F | wind direction | speed knots | gust knots | rain 1hr in | rain 24hr in | rain mn in | humidity % | barometer mb |
| 20260509075504 | 65 | 40 | 2.6 | 3.5 | 0.00 | 0.41 | 0.00 | 62 | 1016.0 |
| 20260509075025 | 65 | 43 | 2.6 | 4.3 | 0.00 | 0.41 | 0.00 | 63 | 1016.0 |
| 20260509074504 | 65 | 29 | 3.5 | 4.3 | 0.00 | 0.41 | 0.00 | 63 | 1016.0 |
| 20260509074004 | 65 | 25 | 2.6 | 3.5 | 0.00 | 0.41 | 0.00 | 64 | 1016.2 |
| 20260509073504 | 65 | 21 | 1.7 | 3.5 | 0.00 | 0.41 | 0.00 | 65 | 1015.9 |
| 20260509073004 | 65 | 50 | 1.7 | 3.5 | 0.00 | 0.41 | 0.00 | 66 | 1016.1 |
| 20260509072525 | 64 | 59 | 2.6 | 3.5 | 0.00 | 0.41 | 0.00 | 66 | 1015.9 |
| 20260509072004 | 64 | 61 | 1.7 | 2.6 | 0.00 | 0.41 | 0.00 | 68 | 1016.0 |
| 20260509071525 | 64 | 52 | 1.7 | 4.3 | 0.00 | 0.41 | 0.00 | 69 | 1016.0 |
| 20260509071004 | 63 | 42 | 0.9 | 4.3 | 0.00 | 0.41 | 0.00 | 72 | 1016.0 |
| 20260509070504 | 63 | 315 | 0.0 | 0.9 | 0.00 | 0.41 | 0.00 | 74 | 1016.0 |
| 20260509070004 | 63 | 355 | 0.0 | 1.7 | 0.00 | 0.41 | 0.00 | 74 | 1016.0 |
| 20260509065525 | 62 | 14 | 0.9 | 1.7 | 0.00 | 0.41 | 0.00 | 74 | 1015.9 |
| 20260509065004 | 61 | 11 | 1.7 | 3.5 | 0.00 | 0.41 | 0.00 | 74 | 1015.9 |
| 20260509064524 | 61 | 6 | 2.6 | 3.5 | 0.00 | 0.41 | 0.00 | 74 | 1016.1 |
| 20260509064025 | 60 | 4 | 2.6 | 3.5 | 0.00 | 0.41 | 0.00 | 74 | 1016.0 |
| 20260509063504 | 60 | 359 | 3.5 | 3.5 | 0.00 | 0.41 | 0.00 | 75 | 1015.9 |
| 20260509063004 | 59 | 357 | 3.5 | 6.1 | 0.00 | 0.41 | 0.00 | 75 | 1016.0 |
| 20260509062504 | 59 | 11 | 4.3 | 6.1 | 0.00 | 0.41 | 0.00 | 76 | 1016.0 |
| 20260509062004 | 58 | 15 | 3.5 | 4.3 | 0.00 | 0.41 | 0.00 | 77 | 1015.8 |
| 20260509061525 | 58 | 4 | 3.5 | 4.3 | 0.00 | 0.41 | 0.00 | 77 | 1015.9 |
| 20260509061004 | 57 | 4 | 3.5 | 4.3 | 0.00 | 0.41 | 0.00 | 78 | 1015.9 |
| 20260509060504 | 57 | 2 | 2.6 | 4.3 | 0.00 | 0.41 | 0.00 | 78 | 1016.0 |
| 20260509060004 | 57 | 356 | 2.6 | 4.3 | 0.00 | 0.41 | 0.00 | 78 | 1015.9 |
| 20260509055525 | 56 | 354 | 3.5 | 4.3 | 0.00 | 0.41 | 0.00 | 78 | 1015.8 |
| 20260509055004 | 56 | 360 | 3.5 | 3.5 | 0.00 | 0.41 | 0.00 | 78 | 1016.0 |
| 20260509054525 | 56 | 358 | 2.6 | 3.5 | 0.00 | 0.41 | 0.00 | 79 | 1015.7 |
| 20260509054025 | 56 | 1 | 2.6 | 3.5 | 0.00 | 0.41 | 0.00 | 79 | 1015.8 |
| 20260509053504 | 56 | 4 | 2.6 | 3.5 | 0.00 | 0.41 | 0.00 | 80 | 1015.9 |
| 20260509053004 | 55 | 7 | 2.6 | 3.5 | 0.00 | 0.41 | 0.00 | 80 | 1016.0 |
| 20260509052519 | 55 | 14 | 3.5 | 4.3 | 0.00 | 0.41 | 0.00 | 81 | 1016.0 |
| 20260509052004 | 54 | 19 | 2.6 | 4.3 | 0.00 | 0.41 | 0.00 | 81 | 1016.0 |
| 20260509051504 | 54 | 9 | 2.6 | 3.5 | 0.00 | 0.41 | 0.00 | 84 | 1015.6 |
| 20260509051004 | 54 | 360 | 2.6 | 2.6 | 0.00 | 0.41 | 0.00 | 84 | 1015.8 |
| 20260509050504 | 53 | 351 | 1.7 | 2.6 | 0.00 | 0.41 | 0.00 | 84 | 1015.8 |
| 20260509050004 | 53 | 335 | 1.7 | 2.6 | 0.00 | 0.41 | 0.00 | 84 | 1015.8 |
| 20260509045525 | 53 | 326 | 2.6 | 3.5 | 0.00 | 0.41 | 0.00 | 85 | 1015.7 |
| 20260509045004 | 53 | 343 | 3.5 | 4.3 | 0.00 | 0.41 | 0.00 | 85 | 1015.5 |
| 20260509044504 | 53 | 7 | 4.3 | 5.2 | 0.00 | 0.41 | 0.00 | 86 | 1015.5 |
| 20260509044004 | 52 | 18 | 4.3 | 5.2 | 0.00 | 0.41 | 0.00 | 86 | 1015.2 |
| 20260509043504 | 52 | 17 | 4.3 | 7.0 | 0.00 | 0.41 | 0.00 | 87 | 1015.1 |
| 20260509043004 | 51 | 16 | 4.3 | 7.0 | 0.00 | 0.41 | 0.00 | 86 | 1015.2 |
| 20260509042504 | 51 | 18 | 4.3 | 4.3 | 0.00 | 0.41 | 0.00 | 86 | 1015.2 |
| 20260509042004 | 51 | 10 | 3.5 | 4.3 | 0.00 | 0.41 | 0.00 | 86 | 1015.2 |
| 20260509041525 | 51 | 3 | 3.5 | 3.5 | 0.00 | 0.41 | 0.00 | 85 | 1015.1 |
| 20260509041004 | 51 | 359 | 3.5 | 3.5 | 0.00 | 0.41 | 0.00 | 85 | 1015.0 |
| 20260509040504 | 51 | 356 | 3.5 | 3.5 | 0.00 | 0.41 | 0.00 | 84 | 1014.9 |
| 20260509040004 | 51 | 357 | 3.5 | 3.5 | 0.00 | 0.41 | 0.00 | 84 | 1014.9 |
| 20260509035504 | 51 | 4 | 2.6 | 3.5 | 0.00 | 0.41 | 0.00 | 84 | 1015.0 |
| 20260509035003 | 51 | 8 | 3.5 | 3.5 | 0.00 | 0.41 | 0.00 | 83 | 1015.0 |
| 20260509034525 | 51 | 11 | 3.5 | 4.3 | 0.00 | 0.41 | 0.00 | 83 | 1014.9 |
| 20260509034004 | 51 | 16 | 4.3 | 6.1 | 0.00 | 0.41 | 0.00 | 82 | 1014.8 |
| 20260509033504 | 51 | 19 | 5.2 | 6.1 | 0.00 | 0.41 | 0.00 | 82 | 1014.9 |
| 20260509033004 | 52 | 18 | 5.2 | 6.1 | 0.00 | 0.41 | 0.00 | 81 | 1015.0 |
| 20260509032504 | 52 | 16 | 5.2 | 7.0 | 0.00 | 0.41 | 0.00 | 81 | 1014.9 |
| 20260509032004 | 53 | 13 | 5.2 | 7.0 | 0.00 | 0.41 | 0.00 | 81 | 1015.0 |
| 20260509031504 | 53 | 8 | 4.3 | 6.1 | 0.00 | 0.41 | 0.00 | 81 | 1014.9 |
| 20260509031025 | 53 | 13 | 5.2 | 7.0 | 0.00 | 0.41 | 0.00 | 81 | 1015.0 |
| 20260509030504 | 53 | 11 | 4.3 | 7.0 | 0.00 | 0.41 | 0.00 | 81 | 1015.0 |
| 20260509030004 | 53 | 9 | 3.5 | 4.3 | 0.00 | 0.41 | 0.00 | 82 | 1015.2 |
| 20260509025504 | 53 | 20 | 3.5 | 4.3 | 0.00 | 0.41 | 0.00 | 82 | 1015.2 |
| 20260509025004 | 53 | 25 | 3.5 | 5.2 | 0.00 | 0.41 | 0.00 | 82 | 1015.1 |
| 20260509024504 | 53 | 28 | 4.3 | 7.0 | 0.00 | 0.41 | 0.00 | 83 | 1015.0 |
| 20260509024004 | 53 | 33 | 4.3 | 7.0 | 0.00 | 0.41 | 0.00 | 83 | 1015.0 |
| 20260509023504 | 53 | 25 | 3.5 | 4.3 | 0.00 | 0.41 | 0.00 | 83 | 1014.9 |
| 20260509023004 | 53 | 24 | 3.5 | 4.3 | 0.00 | 0.41 | 0.00 | 83 | 1014.7 |
| 20260509022504 | 53 | 23 | 3.5 | 4.3 | 0.00 | 0.41 | 0.00 | 83 | 1014.8 |
| 20260509022004 | 53 | 10 | 3.5 | 3.5 | 0.00 | 0.41 | 0.00 | 84 | 1014.8 |
| 20260509021504 | 53 | 14 | 3.5 | 6.1 | 0.00 | 0.41 | 0.00 | 84 | 1014.9 |
| 20260509021004 | 53 | 21 | 5.2 | 6.1 | 0.00 | 0.41 | 0.00 | 85 | 1014.9 |
| 20260509020525 | 53 | 18 | 6.1 | 7.0 | 0.00 | 0.41 | 0.00 | 86 | 1014.9 |
| 20260509020004 | 53 | 17 | 5.2 | 7.0 | 0.00 | 0.41 | 0.00 | 86 | 1015.2 |
| 20260509015504 | 53 | 14 | 5.2 | 6.1 | 0.00 | 0.41 | 0.00 | 86 | 1015.0 |
| 20260509015003 | 53 | 11 | 5.2 | 6.1 | 0.00 | 0.41 | 0.00 | 86 | 1015.3 |
| 20260509014524 | 53 | 14 | 4.3 | 5.2 | 0.00 | 0.41 | 0.00 | 86 | 1015.1 |
| 20260509014004 | 53 | 9 | 3.5 | 5.2 | 0.00 | 0.41 | 0.00 | 86 | 1015.2 |
| 20260509013504 | 53 | 5 | 3.5 | 4.3 | 0.00 | 0.41 | 0.00 | 85 | 1015.3 |
| 20260509013004 | 53 | 7 | 3.5 | 4.3 | 0.00 | 0.41 | 0.00 | 85 | 1015.3 |
| 20260509012504 | 52 | 9 | 2.6 | 3.5 | 0.00 | 0.41 | 0.00 | 85 | 1015.5 |
| 20260509012004 | 52 | 12 | 2.6 | 3.5 | 0.00 | 0.41 | 0.00 | 84 | 1015.2 |
| 20260509011524 | 52 | 13 | 2.6 | 3.5 | 0.00 | 0.41 | 0.00 | 84 | 1015.5 |
| 20260509011025 | 53 | 4 | 3.5 | 3.5 | 0.00 | 0.41 | 0.00 | 83 | 1015.5 |
| 20260509010504 | 53 | 3 | 3.5 | 3.5 | 0.00 | 0.41 | 0.00 | 83 | 1015.2 |
| 20260509010004 | 53 | 10 | 4.3 | 7.0 | 0.00 | 0.41 | 0.00 | 83 | 1015.5 |
| 20260509005524 | 53 | 15 | 5.2 | 7.0 | 0.00 | 0.41 | 0.00 | 82 | 1015.3 |
| 20260509005004 | 53 | 14 | 5.2 | 6.1 | 0.00 | 0.41 | 0.00 | 82 | 1015.2 |
| 20260509004503 | 54 | 11 | 4.3 | 5.2 | 0.00 | 0.41 | 0.00 | 82 | 1015.3 |
| 20260509004003 | 54 | 8 | 4.3 | 5.2 | 0.00 | 0.41 | 0.00 | 82 | 1015.3 |
| 20260509003503 | 54 | 9 | 4.3 | 4.3 | 0.00 | 0.41 | 0.00 | 79 | 1015.2 |
| 20260509003025 | 54 | 13 | 3.5 | 4.3 | 0.00 | 0.41 | 0.00 | 80 | 1015.5 |
| 20260509002504 | 54 | 12 | 4.3 | 5.2 | 0.00 | 0.41 | 0.00 | 80 | 1015.3 |
| 20260509002025 | 54 | 14 | 4.3 | 5.2 | 0.00 | 0.41 | 0.00 | 79 | 1015.3 |
| 20260509001504 | 54 | 10 | 2.6 | 3.5 | 0.00 | 0.41 | 0.00 | 79 | 1015.2 |
| 20260509001004 | 55 | 338 | 1.7 | 2.6 | 0.00 | 0.41 | 0.00 | 79 | 1015.2 |
| 20260509000504 | 55 | 352 | 2.6 | 3.5 | 0.00 | 0.41 | 0.00 | 79 | 1015.1 |
| 20260509000004 | 55 | 22 | 3.5 | 3.5 | 0.00 | 0.41 | 0.00 | 79 | 1015.3 |
| 20260508235524 | 55 | 18 | 3.5 | 4.3 | 0.00 | 0.41 | 0.00 | 79 | 1015.2 |
| 20260508235025 | 55 | 12 | 3.5 | 4.3 | 0.00 | 0.41 | 0.00 | 79 | 1015.2 |
| 20260508234503 | 55 | 11 | 4.3 | 4.3 | 0.00 | 0.41 | 0.00 | 80 | 1015.0 |
| 20260508234004 | 55 | 17 | 4.3 | 5.2 | 0.00 | 0.41 | 0.00 | 80 | 1015.1 |
| 20260508233504 | 55 | 20 | 4.3 | 5.2 | 0.00 | 0.41 | 0.00 | 80 | 1015.2 |
| 20260508233003 | 55 | 14 | 4.3 | 5.2 | 0.00 | 0.41 | 0.00 | 79 | 1015.1 |
| 20260508232504 | 55 | 11 | 4.3 | 4.3 | 0.00 | 0.41 | 0.00 | 79 | 1015.0 |
| 20260508232003 | 55 | 12 | 4.3 | 7.0 | 0.00 | 0.41 | 0.00 | 79 | 1015.2 |
| 20260508231003 | 55 | 15 | 5.2 | 7.0 | 0.00 | 0.41 | 0.00 | 80 | 1014.9 |
| 20260508230503 | 55 | 14 | 4.3 | 5.2 | 0.00 | 0.41 | 0.00 | 80 | 1015.0 |
| 20260508230003 | 55 | 12 | 4.3 | 5.2 | 0.00 | 0.41 | 0.00 | 80 | 1014.9 |
| 20260508225503 | 55 | 12 | 4.3 | 5.2 | 0.00 | 0.41 | 0.00 | 80 | 1015.1 |
| 20260508225003 | 55 | 14 | 3.5 | 5.2 | 0.00 | 0.41 | 0.00 | 80 | 1015.0 |
| 20260508224503 | 55 | 7 | 1.7 | 4.3 | 0.00 | 0.41 | 0.00 | 80 | 1015.2 |
| 20260508224003 | 55 | 6 | 0.9 | 1.7 | 0.00 | 0.41 | 0.00 | 80 | 1015.3 |
| 20260508223503 | 55 | 11 | 0.9 | 1.7 | 0.00 | 0.41 | 0.00 | 79 | 1015.2 |
| 20260508223003 | 55 | 17 | 0.0 | 1.7 | 0.00 | 0.41 | 0.00 | 79 | 1015.2 |
| 20260508222503 | 55 | 18 | 0.0 | 1.7 | 0.00 | 0.41 | 0.00 | 79 | 1015.2 |
| 20260508222003 | 55 | 21 | 0.9 | 2.6 | 0.00 | 0.41 | 0.00 | 80 | 1015.2 |
| 20260508221503 | 56 | 19 | 1.7 | 2.6 | 0.00 | 0.41 | 0.00 | 80 | 1015.2 |
| 20260508221003 | 56 | 19 | 1.7 | 2.6 | 0.00 | 0.41 | 0.00 | 80 | 1015.3 |
| 20260508220503 | 56 | 22 | 1.7 | 2.6 | 0.00 | 0.41 | 0.00 | 81 | 1015.1 |
| 20260508220003 | 56 | 21 | 0.9 | 2.6 | 0.00 | 0.41 | 0.00 | 81 | 1015.2 |
| 20260508215503 | 56 | 19 | 0.9 | 1.7 | 0.00 | 0.41 | 0.41 | 80 | 1015.0 |
| 20260508215003 | 55 | 19 | 0.0 | 1.7 | 0.00 | 0.41 | 0.41 | 80 | 1015.1 |
| 20260508214503 | 55 | 360 | 0.0 | 0.9 | 0.00 | 0.41 | 0.41 | 80 | 1015.1 |
| 20260508214024 | 55 | 22 | 0.0 | 0.9 | 0.00 | 0.41 | 0.41 | 80 | 1015.0 |
| 20260508213503 | 55 | 19 | 0.0 | 0.9 | 0.00 | 0.41 | 0.41 | 80 | 1015.1 |
| 20260508213003 | 55 | 17 | 0.0 | 0.9 | 0.00 | 0.41 | 0.41 | 80 | 1015.1 |
| 20260508212503 | 56 | 351 | 0.9 | 1.7 | 0.00 | 0.41 | 0.41 | 80 | 1015.2 |
| 20260508212003 | 56 | 3 | 1.7 | 2.6 | 0.00 | 0.41 | 0.41 | 79 | 1015.0 |
| 20260508211503 | 56 | 7 | 2.6 | 3.5 | 0.00 | 0.41 | 0.41 | 79 | 1015.0 |
| 20260508211003 | 57 | 359 | 2.6 | 3.5 | 0.00 | 0.41 | 0.41 | 79 | 1015.1 |
| 20260508210524 | 57 | 1 | 2.6 | 3.5 | 0.00 | 0.41 | 0.41 | 79 | 1015.0 |
| 20260508210024 | 57 | 8 | 1.7 | 3.5 | 0.00 | 0.41 | 0.41 | 80 | 1015.0 |
| 20260508205503 | 57 | 0 | 0.0 | 0.0 | 0.00 | 0.41 | 0.41 | 79 | 1015.1 |
| 20260508205024 | 57 | 0 | 0.0 | 0.0 | 0.00 | 0.41 | 0.41 | 78 | 1014.9 |
| 20260508204503 | 57 | 0 | 0.0 | 0.0 | 0.00 | 0.41 | 0.41 | 78 | 1014.9 |
| 20260508204003 | 57 | 0 | 0.0 | 0.0 | 0.00 | 0.41 | 0.41 | 78 | 1014.9 |
| 20260508203503 | 57 | 0 | 0.0 | 0.0 | 0.00 | 0.41 | 0.41 | 78 | 1014.9 |
| 20260508203003 | 57 | 0 | 0.0 | 0.0 | 0.00 | 0.41 | 0.41 | 79 | 1014.9 |
| 20260508202503 | 57 | 0 | 0.0 | 0.0 | 0.00 | 0.41 | 0.41 | 78 | 1014.9 |
| 20260508202003 | 57 | 0 | 0.0 | 0.0 | 0.00 | 0.41 | 0.41 | 78 | 1015.0 |
| 20260508201503 | 57 | 0 | 0.0 | 0.0 | 0.00 | 0.41 | 0.41 | 78 | 1014.9 |
| 20260508201003 | 57 | 0 | 0.0 | 0.0 | 0.00 | 0.41 | 0.41 | 78 | 1014.9 |
| 20260508200503 | 57 | 0 | 0.0 | 0.0 | 0.00 | 0.41 | 0.41 | 78 | 1014.9 |
| 20260508200003 | 57 | 0 | 0.0 | 0.0 | 0.00 | 0.41 | 0.41 | 78 | 1014.8 |
| 20260508195503 | 57 | 0 | 0.0 | 0.0 | 0.00 | 0.41 | 0.41 | 77 | 1014.8 |
| 20260508195003 | 57 | 0 | 0.0 | 0.0 | 0.00 | 0.41 | 0.41 | 77 | 1014.7 |
| 20260508194524 | 57 | 0 | 0.0 | 0.0 | 0.00 | 0.41 | 0.41 | 77 | 1014.8 |
| 20260508194003 | 57 | 0 | 0.0 | 0.0 | 0.00 | 0.41 | 0.41 | 76 | 1014.6 |
| 20260508193503 | 57 | 0 | 0.0 | 0.0 | 0.00 | 0.41 | 0.41 | 76 | 1014.6 |
| 20260508193003 | 58 | 0 | 0.0 | 0.0 | 0.00 | 0.41 | 0.41 | 76 | 1014.4 |
| 20260508192524 | 58 | 0 | 0.0 | 0.0 | 0.00 | 0.41 | 0.41 | 77 | 1014.5 |
| 20260508192024 | 58 | 0 | 0.0 | 0.0 | 0.00 | 0.41 | 0.41 | 77 | 1014.3 |
| 20260508191503 | 58 | 0 | 0.0 | 0.0 | 0.00 | 0.41 | 0.41 | 76 | 1014.2 |
| 20260508191024 | 58 | 0 | 0.0 | 0.0 | 0.00 | 0.41 | 0.41 | 77 | 1014.2 |
| 20260508190503 | 59 | 0 | 0.0 | 0.0 | 0.00 | 0.41 | 0.41 | 78 | 1014.2 |
| 20260508190024 | 59 | 0 | 0.0 | 0.0 | 0.00 | 0.41 | 0.41 | 78 | 1014.0 |
| 20260508185503 | 59 | 0 | 0.0 | 0.0 | 0.00 | 0.41 | 0.41 | 78 | 1013.9 |
| 20260508185003 | 59 | 0 | 0.0 | 0.0 | 0.00 | 0.41 | 0.41 | 78 | 1013.9 |
| 20260508184504 | 59 | 0 | 0.0 | 0.0 | 0.00 | 0.41 | 0.41 | 79 | 1013.9 |
| 20260508184024 | 60 | 0 | 0.0 | 0.0 | 0.00 | 0.41 | 0.41 | 79 | 1013.9 |
| 20260508183503 | 60 | 0 | 0.0 | 0.0 | 0.00 | 0.41 | 0.41 | 78 | 1013.7 |
| 20260508183024 | 60 | 0 | 0.0 | 0.0 | 0.00 | 0.41 | 0.41 | 77 | 1013.7 |
| 20260508182503 | 61 | 0 | 0.0 | 0.0 | 0.00 | 0.41 | 0.41 | 76 | 1013.7 |
| 20260508182003 | 61 | 0 | 0.0 | 0.0 | 0.00 | 0.41 | 0.41 | 76 | 1013.7 |
| 20260508181503 | 62 | 0 | 0.0 | 0.0 | 0.00 | 0.41 | 0.41 | 76 | 1013.6 |
| 20260508181003 | 62 | 0 | 0.0 | 0.0 | 0.00 | 0.41 | 0.41 | 76 | 1013.8 |
| 20260508180503 | 62 | 0 | 0.0 | 0.0 | 0.00 | 0.41 | 0.41 | 76 | 1013.7 |
| 20260508180003 | 62 | 360 | 0.0 | 0.9 | 0.00 | 0.41 | 0.41 | 76 | 1013.9 |
| 20260508175503 | 62 | 360 | 0.0 | 0.9 | 0.00 | 0.41 | 0.41 | 77 | 1013.8 |
| 20260508175003 | 61 | 360 | 0.0 | 0.9 | 0.00 | 0.41 | 0.41 | 77 | 1013.6 |
| 20260508174503 | 61 | 0 | 0.0 | 0.0 | 0.00 | 0.41 | 0.41 | 77 | 1013.7 |
| 20260508174003 | 62 | 0 | 0.0 | 0.0 | 0.00 | 0.41 | 0.41 | 77 | 1013.8 |
| 20260508173503 | 62 | 0 | 0.0 | 0.0 | 0.00 | 0.41 | 0.41 | 76 | 1013.6 |
| 20260508173003 | 61 | 0 | 0.0 | 0.0 | 0.00 | 0.41 | 0.41 | 77 | 1013.7 |
| 20260508172503 | 61 | 0 | 0.0 | 0.0 | 0.00 | 0.41 | 0.41 | 77 | 1013.8 |
| 20260508172003 | 61 | 0 | 0.0 | 0.0 | 0.00 | 0.41 | 0.41 | 77 | 1013.7 |
| 20260508171503 | 61 | 0 | 0.0 | 0.0 | 0.00 | 0.41 | 0.41 | 77 | 1013.6 |
| 20260508171003 | 61 | 0 | 0.0 | 0.0 | 0.00 | 0.41 | 0.41 | 78 | 1013.6 |
| 20260508170503 | 61 | 0 | 0.0 | 0.0 | 0.00 | 0.41 | 0.41 | 78 | 1013.7 |
| 20260508170003 | 61 | 0 | 0.0 | 0.0 | 0.00 | 0.41 | 0.41 | 78 | 1013.6 |
| 20260508165524 | 62 | 0 | 0.0 | 0.0 | 0.00 | 0.41 | 0.41 | 78 | 1013.7 |
| 20260508165024 | 62 | 0 | 0.0 | 0.0 | 0.00 | 0.41 | 0.41 | 77 | 1013.5 |
| 20260508164524 | 62 | 0 | 0.0 | 0.0 | 0.00 | 0.41 | 0.41 | 77 | 1013.6 |
| 20260508164024 | 62 | 0 | 0.0 | 0.0 | 0.00 | 0.41 | 0.41 | 77 | 1013.8 |
| 20260508163503 | 62 | 0 | 0.0 | 0.0 | 0.00 | 0.41 | 0.41 | 77 | 1013.6 |
| 20260508163003 | 62 | 0 | 0.0 | 0.0 | 0.00 | 0.41 | 0.41 | 77 | 1013.6 |
| 20260508162503 | 62 | 0 | 0.0 | 0.0 | 0.00 | 0.41 | 0.41 | 77 | 1013.5 |
| 20260508162024 | 61 | 0 | 0.0 | 0.0 | 0.00 | 0.41 | 0.41 | 78 | 1013.4 |
| 20260508161503 | 61 | 67 | 0.0 | 0.9 | 0.00 | 0.41 | 0.41 | 79 | 1013.6 |
| 20260508161024 | 60 | 67 | 0.0 | 0.9 | 0.01 | 0.41 | 0.41 | 80 | 1013.6 |
| 20260508160503 | 60 | 0 | 0.0 | 0.0 | 0.01 | 0.41 | 0.41 | 80 | 1013.6 |
| 20260508160024 | 60 | 9 | 0.0 | 1.7 | 0.02 | 0.41 | 0.41 | 80 | 1013.6 |
| 20260508155524 | 60 | 11 | 0.9 | 1.7 | 0.04 | 0.41 | 0.41 | 80 | 1013.5 |
| 20260508155024 | 59 | 13 | 0.0 | 1.7 | 0.05 | 0.41 | 0.41 | 80 | 1013.5 |
| 20260508154524 | 59 | 341 | 0.9 | 1.7 | 0.06 | 0.41 | 0.41 | 79 | 1013.8 |
| 20260508154003 | 58 | 359 | 1.7 | 3.5 | 0.07 | 0.41 | 0.41 | 79 | 1013.6 |
| 20260508153503 | 58 | 1 | 2.6 | 3.5 | 0.07 | 0.41 | 0.41 | 78 | 1013.8 |
| 20260508153003 | 58 | 7 | 2.6 | 3.5 | 0.08 | 0.41 | 0.41 | 78 | 1013.9 |
| 20260508152503 | 58 | 25 | 3.5 | 4.3 | 0.09 | 0.41 | 0.41 | 78 | 1013.9 |
| 20260508152024 | 57 | 33 | 3.5 | 4.3 | 0.09 | 0.41 | 0.41 | 77 | 1014.1 |
| 20260508151503 | 57 | 45 | 3.5 | 5.2 | 0.11 | 0.41 | 0.41 | 77 | 1014.1 |
| 20260508151003 | 57 | 32 | 2.6 | 5.2 | 0.12 | 0.40 | 0.40 | 76 | 1014.2 |
| 20260508150503 | 56 | 19 | 4.3 | 7.0 | 0.13 | 0.40 | 0.40 | 76 | 1014.0 |
| 20260508150003 | 56 | 10 | 4.3 | 7.0 | 0.18 | 0.39 | 0.39 | 76 | 1013.9 |
| 20260508145503 | 56 | 355 | 3.5 | 5.2 | 0.31 | 0.38 | 0.38 | 76 | 1014.0 |
| 20260508145024 | 56 | 355 | 2.6 | 3.5 | 0.32 | 0.37 | 0.37 | 76 | 1014.0 |
| 20260508144503 | 56 | 359 | 1.7 | 3.5 | 0.32 | 0.35 | 0.35 | 76 | 1014.0 |
| 20260508144003 | 56 | 330 | 0.9 | 3.5 | 0.31 | 0.34 | 0.34 | 76 | 1013.9 |
| 20260508143503 | 56 | 331 | 1.7 | 3.5 | 0.32 | 0.34 | 0.34 | 75 | 1014.0 |
| 20260508143003 | 56 | 344 | 0.9 | 3.5 | 0.31 | 0.33 | 0.33 | 75 | 1014.0 |
| 20260508142524 | 56 | 341 | 0.9 | 3.5 | 0.32 | 0.32 | 0.32 | 74 | 1014.1 |
| 20260508142003 | 57 | 340 | 1.7 | 3.5 | 0.32 | 0.32 | 0.32 | 74 | 1014.2 |
| 20260508141503 | 57 | 330 | 3.5 | 4.3 | 0.31 | 0.31 | 0.31 | 73 | 1014.1 |
| 20260508141003 | 58 | 320 | 3.5 | 6.1 | 0.28 | 0.28 | 0.28 | 72 | 1014.4 |
| 20260508140503 | 58 | 321 | 6.1 | 9.6 | 0.27 | 0.27 | 0.27 | 71 | 1014.3 |
| 20260508140003 | 59 | 323 | 4.3 | 9.6 | 0.21 | 0.21 | 0.21 | 70 | 1014.4 |
| 20260508135503 | 61 | 328 | 1.7 | 4.3 | 0.07 | 0.07 | 0.07 | 70 | 1014.3 |
| 20260508135003 | 61 | 344 | 2.6 | 7.8 | 0.05 | 0.05 | 0.05 | 69 | 1014.2 |
| 20260508134503 | 62 | 346 | 1.7 | 7.8 | 0.04 | 0.04 | 0.04 | 68 | 1013.9 |
| 20260508134003 | 64 | 325 | 0.9 | 2.6 | 0.04 | 0.04 | 0.04 | 62 | 1013.9 |
| 20260508133503 | 64 | 317 | 0.9 | 2.6 | 0.02 | 0.02 | 0.02 | 61 | 1014.0 |
| 20260508133003 | 65 | 329 | 0.9 | 1.7 | 0.02 | 0.02 | 0.02 | 60 | 1013.9 |
| 20260508132503 | 65 | 298 | 1.7 | 6.1 | 0.00 | 0.00 | 0.00 | 59 | 1014.0 |
| 20260508132003 | 66 | 274 | 3.5 | 6.1 | 0.00 | 0.00 | 0.00 | 57 | 1014.2 |
| 20260508131503 | 66 | 263 | 1.7 | 6.1 | 0.00 | 0.00 | 0.00 | 56 | 1014.1 |
| 20260508131003 | 67 | 117 | 0.9 | 4.3 | 0.00 | 0.00 | 0.00 | 56 | 1014.0 |
| 20260508130503 | 67 | 233 | 3.5 | 6.1 | 0.00 | 0.00 | 0.00 | 55 | 1014.1 |
| 20260508130003 | 67 | 252 | 5.2 | 7.0 | 0.00 | 0.00 | 0.00 | 55 | 1014.2 |
| 20260508125524 | 67 | 253 | 4.3 | 7.0 | 0.00 | 0.00 | 0.00 | 54 | 1014.2 |
| 20260508125003 | 67 | 225 | 1.7 | 7.0 | 0.00 | 0.00 | 0.00 | 54 | 1014.2 |
| 20260508124524 | 67 | 193 | 2.6 | 4.3 | 0.00 | 0.00 | 0.00 | 54 | 1014.0 |
| 20260508124024 | 67 | 160 | 2.6 | 4.3 | 0.00 | 0.00 | 0.00 | 54 | 1014.0 |
| 20260508123503 | 68 | 8 | 2.6 | 4.3 | 0.00 | 0.00 | 0.00 | 54 | 1014.2 |
| 20260508123003 | 68 | 244 | 3.5 | 7.0 | 0.00 | 0.00 | 0.00 | 55 | 1014.1 |
| 20260508122503 | 68 | 211 | 4.3 | 7.0 | 0.00 | 0.00 | 0.00 | 55 | 1014.0 |
| 20260508122003 | 68 | 192 | 2.6 | 6.1 | 0.00 | 0.00 | 0.00 | 56 | 1014.0 |
| 20260508121503 | 67 | 217 | 2.6 | 4.3 | 0.00 | 0.00 | 0.00 | 57 | 1014.2 |
| 20260508121003 | 67 | 229 | 3.5 | 5.2 | 0.00 | 0.00 | 0.00 | 56 | 1014.1 |
| 20260508120503 | 67 | 184 | 4.3 | 6.1 | 0.00 | 0.00 | 0.00 | 56 | 1014.1 |
| 20260508120003 | 67 | 186 | 5.2 | 6.1 | 0.00 | 0.00 | 0.00 | 56 | 1014.2 |
| 20260508115508 | 67 | 226 | 6.1 | 9.6 | 0.00 | 0.00 | 0.00 | 56 | 1014.2 |
| 20260508115003 | 67 | 246 | 6.1 | 9.6 | 0.00 | 0.00 | 0.00 | 56 | 1014.4 |
| 20260508114503 | 67 | 195 | 5.2 | 9.6 | 0.00 | 0.00 | 0.00 | 56 | 1014.2 |
| 20260508114024 | 66 | 138 | 4.3 | 7.0 | 0.00 | 0.00 | 0.00 | 56 | 1014.4 |
| 20260508113503 | 66 | 130 | 5.2 | 7.0 | 0.00 | 0.00 | 0.00 | 57 | 1014.4 |
| 20260508113003 | 66 | 170 | 4.3 | 7.0 | 0.00 | 0.00 | 0.00 | 56 | 1014.3 |
| 20260508112503 | 67 | 219 | 5.2 | 8.7 | 0.00 | 0.00 | 0.00 | 57 | 1014.5 |
| 20260508112003 | 67 | 205 | 6.1 | 8.7 | 0.00 | 0.00 | 0.00 | 57 | 1014.6 |
| 20260508111503 | 67 | 218 | 4.3 | 7.0 | 0.00 | 0.00 | 0.00 | 58 | 1014.4 |
| 20260508111003 | 67 | 286 | 2.6 | 5.2 | 0.00 | 0.00 | 0.00 | 58 | 1014.6 |
| 20260508110524 | 67 | 270 | 2.6 | 4.3 | 0.00 | 0.00 | 0.00 | 58 | 1014.6 |
| 20260508110003 | 67 | 181 | 3.5 | 4.3 | 0.00 | 0.00 | 0.00 | 58 | 1014.5 |
| 20260508105503 | 67 | 197 | 3.5 | 7.0 | 0.00 | 0.00 | 0.00 | 58 | 1014.6 |
| 20260508105003 | 67 | 217 | 4.3 | 7.0 | 0.00 | 0.00 | 0.00 | 59 | 1014.7 |
| 20260508104503 | 67 | 208 | 3.5 | 5.2 | 0.00 | 0.00 | 0.00 | 59 | 1014.7 |
| 20260508104024 | 67 | 170 | 4.3 | 7.8 | 0.00 | 0.00 | 0.00 | 60 | 1014.7 |
| 20260508103503 | 66 | 204 | 5.2 | 7.8 | 0.00 | 0.00 | 0.00 | 59 | 1014.7 |
| 20260508103003 | 66 | 211 | 4.3 | 7.8 | 0.00 | 0.00 | 0.00 | 60 | 1014.7 |
| 20260508102524 | 66 | 202 | 5.2 | 7.8 | 0.00 | 0.00 | 0.00 | 60 | 1014.9 |
| 20260508102003 | 66 | 215 | 3.5 | 7.8 | 0.00 | 0.00 | 0.00 | 61 | 1014.8 |
| 20260508101503 | 65 | 59 | 1.7 | 3.5 | 0.00 | 0.00 | 0.00 | 61 | 1014.9 |
| 20260508101003 | 65 | 139 | 3.5 | 7.0 | 0.00 | 0.00 | 0.00 | 60 | 1014.8 |
| 20260508100503 | 65 | 181 | 5.2 | 7.0 | 0.00 | 0.00 | 0.00 | 60 | 1014.8 |
| 20260508100003 | 65 | 203 | 4.3 | 7.0 | 0.00 | 0.00 | 0.00 | 61 | 1014.9 |
| 20260508095503 | 65 | 243 | 3.5 | 5.2 | 0.00 | 0.00 | 0.00 | 61 | 1014.9 |
| 20260508095003 | 65 | 263 | 4.3 | 7.0 | 0.00 | 0.00 | 0.00 | 61 | 1014.8 |
| 20260508094503 | 65 | 221 | 5.2 | 7.0 | 0.00 | 0.00 | 0.00 | 61 | 1014.8 |
| 20260508094003 | 65 | 208 | 5.2 | 7.0 | 0.00 | 0.00 | 0.00 | 61 | 1014.9 |
| 20260508093503 | 65 | 252 | 4.3 | 7.0 | 0.00 | 0.00 | 0.00 | 61 | 1014.8 |
| 20260508093003 | 64 | 261 | 4.3 | 5.2 | 0.00 | 0.00 | 0.00 | 62 | 1014.8 |
| 20260508092524 | 64 | 226 | 5.2 | 7.0 | 0.00 | 0.00 | 0.00 | 61 | 1014.9 |
| 20260508092003 | 64 | 197 | 6.1 | 7.0 | 0.00 | 0.00 | 0.00 | 61 | 1014.8 |
| 20260508091503 | 64 | 173 | 6.1 | 7.0 | 0.00 | 0.00 | 0.00 | 62 | 1014.8 |
| 20260508091024 | 64 | 116 | 6.1 | 7.0 | 0.00 | 0.00 | 0.00 | 62 | 1014.8 |
| 20260508090503 | 63 | 96 | 5.2 | 6.1 | 0.00 | 0.00 | 0.00 | 65 | 1014.9 |
| 20260508090024 | 63 | 127 | 5.2 | 7.0 | 0.00 | 0.00 | 0.00 | 65 | 1014.7 |
| 20260508085503 | 63 | 133 | 6.1 | 7.0 | 0.00 | 0.00 | 0.00 | 65 | 1014.9 |
| 20260508085003 | 62 | 152 | 5.2 | 7.0 | 0.00 | 0.00 | 0.00 | 65 | 1014.9 |
| 20260508084503 | 62 | 177 | 5.2 | 7.0 | 0.00 | 0.00 | 0.00 | 65 | 1014.8 |
| 20260508084003 | 62 | 195 | 4.3 | 7.0 | 0.00 | 0.00 | 0.00 | 66 | 1014.8 |
| 20260508083503 | 62 | 179 | 4.3 | 7.0 | 0.00 | 0.00 | 0.00 | 66 | 1014.7 |
| 20260508083003 | 62 | 184 | 6.1 | 7.8 | 0.00 | 0.00 | 0.00 | 66 | 1014.8 |
| 20260508082503 | 62 | 217 | 6.1 | 7.8 | 0.00 | 0.00 | 0.00 | 66 | 1014.8 |
| 20260508082003 | 62 | 219 | 5.2 | 7.0 | 0.00 | 0.00 | 0.00 | 67 | 1014.6 |
| 20260508081503 | 62 | 206 | 5.2 | 7.0 | 0.00 | 0.00 | 0.00 | 67 | 1014.8 |
| 20260508081003 | 63 | 219 | 3.5 | 7.0 | 0.00 | 0.00 | 0.00 | 68 | 1014.7 |
| 20260508080503 | 63 | 281 | 1.7 | 2.6 | 0.00 | 0.00 | 0.00 | 69 | 1014.6 |
| 20260508080024 | 63 | 317 | 1.7 | 3.5 | 0.00 | 0.00 | 0.00 | 69 | 1014.8 |